EN

Hourly Weather Aligudarz

Today, 22 January, Friday

Time Temperature Precipitation Wind Pressure Humidity
00:00 -7°C° 0 mm 0 mps 591 mmHg 82%
01:00 -7°C° 0 mm 0 mps 591 mmHg 84%
02:00 -7°C° 0 mm 0 mps 591 mmHg 85%
03:00 -8°C° 0 mm 0 mps 591 mmHg 87%
04:00 -8°C° 0 mm 0 mps 592 mmHg 88%
05:00 -8°C° 0 mm 1 mps 592 mmHg 89%
06:00 -8°C° 0 mm 1 mps 592 mmHg 90%
07:00 -7°C° 0 mm 1 mps 593 mmHg 84%
08:00 -7°C° 0 mm 1 mps 593 mmHg 79%
09:00 -6°C° 0 mm 1 mps 594 mmHg 74%
10:00 -6°C° 0 mm 2 mps 594 mmHg 67%
11:00 -4°C° 0 mm 2 mps 594 mmHg 59%
12:00 -4°C° 0 mm 3 mps 594 mmHg 52%
13:00 -4°C° 0 mm 3 mps 594 mmHg 52%
14:00 -4°C° 0 mm 3 mps 594 mmHg 51%
15:00 -2°C° 0 mm 3 mps 594 mmHg 50%
16:00 -4°C° 0 mm 2 mps 593 mmHg 55%
17:00 -5°C° 0 mm 2 mps 593 mmHg 60%
18:00 -6°C° 0 mm 1 mps 593 mmHg 65%
19:00 -6°C° 0 mm 1 mps 593 mmHg 66%
20:00 -7°C° 0 mm 2 mps 593 mmHg 67%
21:00 -7°C° 0 mm 2 mps 593 mmHg 68%
22:00 -8°C° 0 mm 2 mps 593 mmHg 69%
23:00 -7°C° 0 mm 1 mps 593 mmHg 69%

Tomorrow, 23 January, Saturday

Time Temperature Precipitation Wind Pressure Humidity
00:00 -7°C° 0 mm 1 mps 593 mmHg 69%
01:00 -8°C° 0 mm 2 mps 593 mmHg 69%
02:00 -9°C° 0 mm 2 mps 592 mmHg 69%
03:00 -9°C° 0 mm 2 mps 592 mmHg 69%
04:00 -9°C° 0 mm 2 mps 592 mmHg 67%
05:00 -9°C° 0 mm 2 mps 592 mmHg 65%
06:00 -9°C° 0 mm 2 mps 593 mmHg 64%
07:00 -7°C° 0 mm 2 mps 593 mmHg 59%
08:00 -6°C° 0 mm 2 mps 594 mmHg 54%
09:00 -5°C° 0 mm 2 mps 594 mmHg 49%
10:00 -3°C° 0 mm 2 mps 595 mmHg 45%
11:00 +1°C° 0 mm 1 mps 595 mmHg 42%
12:00 +2°C° 0 mm 1 mps 595 mmHg 38%
13:00 +3°C° 0 mm 1 mps 595 mmHg 38%
14:00 +3°C° 0 mm 1 mps 594 mmHg 38%
15:00 +4°C° 0 mm 1 mps 594 mmHg 39%
16:00 +2°C° 0 mm 1 mps 593 mmHg 40%
17:00 0°C° 0 mm 1 mps 593 mmHg 42%
18:00 -2°C° 0 mm 1 mps 592 mmHg 44%
19:00 -2°C° 0 mm 1 mps 592 mmHg 43%
20:00 -2°C° 0 mm 1 mps 592 mmHg 41%
21:00 -2°C° 0 mm 1 mps 592 mmHg 40%
22:00 -2°C° 0 mm 1 mps 592 mmHg 39%
23:00 -2°C° 0 mm 1 mps 592 mmHg 38%

Day after tomorrow, 24 January, Sunday

Time Temperature Precipitation Wind Pressure Humidity
00:00 -2°C° 0 mm 1 mps 592 mmHg 37%
01:00 -2°C° 0 mm 1 mps 592 mmHg 35%
02:00 -3°C° 0 mm 1 mps 591 mmHg 33%
03:00 -3°C° 0 mm 1 mps 591 mmHg 31%
04:00 -3°C° 0 mm 1 mps 591 mmHg 30%
05:00 -3°C° 0 mm 1 mps 591 mmHg 29%
06:00 -3°C° 0 mm 1 mps 591 mmHg 27%
07:00 -2°C° 0 mm 1 mps 592 mmHg 27%
08:00 0°C° 0 mm 1 mps 593 mmHg 27%
09:00 +1°C° 0 mm 1 mps 594 mmHg 27%
10:00 +2°C° 0 mm 1 mps 594 mmHg 28%
11:00 +4°C° 0 mm 1 mps 594 mmHg 29%
12:00 +5°C° 0 mm 1 mps 594 mmHg 30%
13:00 +5°C° 0 mm 1 mps 593 mmHg 31%
14:00 +5°C° 0 mm 1 mps 593 mmHg 31%
15:00 +5°C° 0 mm 1 mps 593 mmHg 32%
16:00 +3°C° 0 mm 1 mps 592 mmHg 35%
17:00 +1°C° 0 mm 1 mps 591 mmHg 38%
18:00 -1°C° 0 mm 1 mps 591 mmHg 40%
19:00 -1°C° 0 mm 1 mps 591 mmHg 38%
20:00 -1°C° 0 mm 1 mps 591 mmHg 36%
21:00 -1°C° 0 mm 1 mps 591 mmHg 35%
22:00 -1°C° 0 mm 1 mps 591 mmHg 32%
23:00 -1°C° 0 mm 1 mps 591 mmHg 30%

25 January, Monday

Time Temperature Precipitation Wind Pressure Humidity
00:00 -1°C° 0 mm 1 mps 591 mmHg 28%
01:00 -1°C° 0 mm 1 mps 591 mmHg 27%
02:00 -1°C° 0 mm 1 mps 590 mmHg 25%
03:00 -1°C° 0 mm 1 mps 590 mmHg 24%
04:00 -1°C° 0 mm 1 mps 590 mmHg 24%
05:00 -1°C° 0 mm 1 mps 590 mmHg 24%
06:00 -1°C° 0 mm 1 mps 590 mmHg 23%
07:00 0°C° 0 mm 1 mps 591 mmHg 23%
08:00 +2°C° 0 mm 1 mps 592 mmHg 23%
09:00 +3°C° 0 mm 1 mps 593 mmHg 23%
10:00 +4°C° 0 mm 1 mps 594 mmHg 25%
11:00 +5°C° 0 mm 1 mps 594 mmHg 27%
12:00 +7°C° 0 mm 1 mps 594 mmHg 28%
13:00 +7°C° 0 mm 1 mps 594 mmHg 29%
14:00 +7°C° 0 mm 1 mps 593 mmHg 30%
15:00 +7°C° 0 mm 1 mps 593 mmHg 31%
16:00 +5°C° 0 mm 1 mps 592 mmHg 33%
17:00 +3°C° 0 mm 1 mps 592 mmHg 36%
18:00 +1°C° 0 mm 1 mps 591 mmHg 39%
19:00 0°C° 0 mm 1 mps 591 mmHg 37%
20:00 0°C° 0 mm 1 mps 591 mmHg 36%
21:00 0°C° 0 mm 1 mps 591 mmHg 34%
22:00 0°C° 0 mm 1 mps 591 mmHg 33%
23:00 0°C° 0 mm 1 mps 591 mmHg 32%

26 January, Tuesday

Time Temperature Precipitation Wind Pressure Humidity
00:00 0°C° 0 mm 1 mps 591 mmHg 30%
01:00 -1°C° 0 mm 1 mps 591 mmHg 29%
02:00 -1°C° 0 mm 1 mps 591 mmHg 28%
03:00 -1°C° 0 mm 1 mps 591 mmHg 28%
04:00 -1°C° 0 mm 1 mps 591 mmHg 27%
05:00 -1°C° 0 mm 1 mps 591 mmHg 27%
06:00 -1°C° 0 mm 1 mps 590 mmHg 26%
07:00 +1°C° 0 mm 1 mps 591 mmHg 25%
08:00 +2°C° 0 mm 1 mps 592 mmHg 24%
09:00 +4°C° 0 mm 1 mps 593 mmHg 23%
10:00 +5°C° 0 mm 1 mps 594 mmHg 25%
11:00 +6°C° 0 mm 1 mps 594 mmHg 27%
12:00 +8°C° 0 mm 1 mps 594 mmHg 28%
13:00 +8°C° 0 mm 1 mps 594 mmHg 30%
14:00 +8°C° 0 mm 1 mps 594 mmHg 32%
15:00 +8°C° 0 mm 1 mps 594 mmHg 34%
16:00 +6°C° 0 mm 1 mps 593 mmHg 37%
17:00 +5°C° 0 mm 1 mps 592 mmHg 39%
18:00 +3°C° 0 mm 1 mps 591 mmHg 42%
19:00 +3°C° 0 mm 1 mps 591 mmHg 40%
20:00 +2°C° 0 mm 1 mps 591 mmHg 38%
21:00 +2°C° 0 mm 1 mps 591 mmHg 36%
22:00 +2°C° 0 mm 1 mps 591 mmHg 34%
23:00 +2°C° 0 mm 1 mps 591 mmHg 32%

27 January, Wednesday

Time Temperature Precipitation Wind Pressure Humidity
00:00 +2°C° 0 mm 1 mps 591 mmHg 30%
01:00 +1°C° 0 mm 1 mps 591 mmHg 28%
02:00 +1°C° 0 mm 1 mps 591 mmHg 27%
03:00 +1°C° 0 mm 1 mps 591 mmHg 26%
04:00 +1°C° 0 mm 1 mps 590 mmHg 25%
05:00 +1°C° 0 mm 1 mps 590 mmHg 24%
06:00 +1°C° 0 mm 1 mps 590 mmHg 23%
07:00 +3°C° 0 mm 1 mps 591 mmHg 22%
08:00 +5°C° 0 mm 1 mps 592 mmHg 20%
09:00 +6°C° 0 mm 1 mps 594 mmHg 19%
10:00 +8°C° 0 mm 1 mps 594 mmHg 20%
11:00 +9°C° 0 mm 1 mps 594 mmHg 22%
12:00 +10°C° 0 mm 1 mps 594 mmHg 23%
13:00 +10°C° 0 mm 1 mps 594 mmHg 24%
14:00 +10°C° 0 mm 1 mps 594 mmHg 26%
15:00 +10°C° 0 mm 1 mps 593 mmHg 27%
16:00 +8°C° 0 mm 1 mps 593 mmHg 31%
17:00 +6°C° 0 mm 1 mps 592 mmHg 34%
18:00 +4°C° 0 mm 1 mps 591 mmHg 37%
19:00 +4°C° 0 mm 1 mps 591 mmHg 36%
20:00 +3°C° 0 mm 2 mps 591 mmHg 35%
21:00 +2°C° 0 mm 2 mps 591 mmHg 34%
22:00 +2°C° 0 mm 2 mps 590 mmHg 33%
23:00 +2°C° 0 mm 2 mps 590 mmHg 32%
Show more